Regional Weather Roundup
Issued by NWS

Home | Current Version | Previous Version | Graphics & Text | Print | Product List | Glossary On
Versions: 1 2 3 4 5 6 7 8 9 10 11 12 13 14 15 16 17 18 19 20 21 22 23 24 25 26 27 28 29 30 31 32 33 34 35 36 37 38 39 40 41 42 43 44 45 46 47 48 49 50
000
ASUS45 KTFX 201819
RWRMT
MONTANA HOURLY WEATHER ROUNDUP
NATIONAL WEATHER SERVICE GREAT FALLS MT
1119 AM MST THU NOV 20 2014

NOTE: "FAIR" INDICATES FEW OR NO CLOUDS BELOW 12000 FEET WITH NO
SIGNIFICANT WEATHER AND/OR OBSTRUCTIONS TO VISIBILITY.

* THESE STATIONS ARE NOT UNDER NWS QUALITY CONTROL. THEY DO NOT
   REPORT WEATHER SUCH AS PRECIPITATION OR FOG.

MTZ001>007-043-201900-
WEST OF THE DIVIDE
CITY           SKY/WX    TMP DP  RH WIND       PRES   REMARKS
KALISPELL      FOG       25  23  92 CALM      30.06S VSB 1/2
MISSOULA       CLOUDY    25  21  85 CALM      30.07S
BUTTE          PTSUNNY   30  19  64 CALM      29.98S
MULLAN PASS    CLOUDY    28  18  66 N/A       29.95F
* ESSEX        N/A       22  17  81 N/A        N/A
* EUREKA APT   PTCLDY    21  18  88 CALM      30.08F
* HAMILTON APT PTCLDY    27  21  78 NW3       30.03F
* LIBBY APT    PTCLDY    25  19  78 CALM      30.08F
* LINCOLN      N/A       29  18  63 NW2        N/A
* POLSON       N/A       23  22  96 S2         N/A
* RONAN APT    PTSUNNY   25  21  85 N/A        N/A
* SEELEY LAKE  N/A       24  20  85 SE1        N/A
* THOMP F APT  PTSUNNY   32  14  47 E6         N/A   WCI  26
* YAAK HILL    N/A       27  21  78 SW1        N/A
$$

MTZ008-052>055-201900-
SOUTHWEST MONTANA
CITY           SKY/WX    TMP DP  RH WIND       PRES   REMARKS
BOZEMAN        PTCLDY    28  21  75 CALM      29.98S
DILLON         PTCLDY    36  21  54 SW13      29.99S WCI  27
* W YELLOWSTON PTCLDY    28  17  63 NW1        N/A
* ENNIS APT    SUNNY     36  21  54 SE11       N/A   WCI  28
* THREE FORKS  PTCLDY    30  30 100 N/A        N/A
* BOULDER HILL N/A       36  15  42 S8G13      N/A   WCI  30
* MONIDA PASS  N/A       28  17  63 SE17       N/A   WCI  16
* RAYNOLDS PAS N/A       27  11  51 SE13       N/A   WCI  16
* WHITEHALL    N/A       40  22  49 SW6        N/A   WCI  36
* WISE RIVER   N/A       30  18  61 W4         N/A
$$

MTZ009>010-012-014-046-048-049-054-201900-
EAST SLOPES AND CENTRAL MONTANA
CITY           SKY/WX    TMP DP  RH WIND       PRES   REMARKS
GREAT FALLS    PTSUNNY   43  23  45 SW17G25   29.82S
HELENA         PTSUNNY   30  21  69 N3        29.97S
MALMSTROM AFB  PTSUNNY   39  28  65 SW16      29.84S WCI  30
* CONRAD       CLOUDY    21  21 100 CALM       N/A
* DEARBORN     N/A       48  16  28 SW11G24    N/A
* EAST GLACIER N/A       40  16  38 W37G44     N/A   WCI  27
* MONARCH      N/A       41  13  32 S8G14      N/A
* PENDROY      N/A       45  19  35 SW7G19     N/A
* ROGERS PASS  N/A       35  14  42 E10G28     N/A   WCI  27
* SAINT MARY   N/A       44  13  28 S11G30     N/A
* SWEET GRASS  N/A       25  25 100 SW7        N/A   WCI  17
* WHITE SULPH  N/A       40  19  43 S14G19     N/A   WCI  32
$$

MTZ011-013-016-021-035-040-045-047-050-051-201900-
NORTH CENTRAL MONTANA
CITY           SKY/WX    TMP DP  RH WIND       PRES   REMARKS
HAVRE          CLOUDY    21  19  92 SW6       29.85F WCI  13
LEWISTOWN      PTCLDY    39  25  57 SE3       29.84S
* N BAR RANCH  SUNNY     41  23  49 CALM      29.84S
* CHINOOK      PTSUNNY   21  19  92 SE3       29.87F
* FORT BENTON  PTCLDY    19  18  96 CALM      29.85F
* MALTA APT    PTSUNNY   25  16  69 N/A        N/A
* CHESTER      N/A       24  22  92 SW1        N/A
* DENTON       N/A       39  25  57 S7         N/A   WCI  34
* GEYSER       N/A       50  14  24 W9G20      N/A
* JUDITH GAP   N/A       45  17  32 S6         N/A
* LOMA         N/A       19  17  92 N/A        N/A
$$

MTZ017>020-022>027-061-062-201900-
NORTHEAST MONTANA
CITY           SKY/WX    TMP DP  RH WIND       PRES   REMARKS
GLASGOW        CLOUDY    21  18  88 SE13      29.90S WCI   8
GLENDIVE       CLOUDY    19  18  96 SE6       29.94F VSB 2 1/2 WCI  11
JORDAN         PTCLDY    25  18  75 CALM      29.87F
SIDNEY         CLOUDY    19  16  88 SE10      29.98F WCI   8
WOLF POINT     CLOUDY    21  18  88 SE7       29.94F WCI  12
* BEAVER HILL  N/A       17  15  92 SE8        N/A   WCI   7
* CIRCLE       N/A       26  20  78 S4         N/A
* LINDSAY DVD  N/A       18  16  92 SE5        N/A   WCI  11
* PLENTYWOOD A PTCLDY    18  12  77 S12       29.93F WCI   5
* POPLAR APT   PTCLDY    19  16  88 N/A       29.95F
* SACO         N/A       23  19  85 SE4        N/A
* SCOBEY APT   PTCLDY    18   9  68 S6         N/A   WCI  10
$$

MTZ028>042-056>058-201900-
SOUTHCENTRAL AND SOUTHEAST MONTANA
CITY           SKY/WX    TMP DP  RH WIND       PRES   REMARKS
BAKER          PTCLDY    19  16  88 SE9       29.93F WCI   8
BILLINGS       PTCLDY    37  19  48 SW23      29.88F WCI  26
LIVINGSTON     PTSUNNY   43  19  38 SW30G43   29.91S
MILES CITY     SUNNY     21  18  88 SE7       29.91F WCI  12
* BIG TIMBER A PTSUNNY   45  19  35 SW18G30   29.88F
* FORSYTH APT  SUNNY     28  25  89 N3        29.89F
* LAUREL APT   PTCLDY    37  18  46 S6         N/A   WCI  32
* ALZADA       N/A       22  21  96 SE1        N/A
* HYSHAM       N/A       36  17  46 W7G12      N/A   WCI  30
* LAME DEER    N/A       45  21  38 S5         N/A
* REED POINT   N/A       30  21  69 E3         N/A
* ROSCOE HILL  N/A       40  15  36 SE5        N/A   WCI  36
$$

REGIONAL REPORTS...DAKOTAS
CITY           SKY/WX    TMP DP  RH WIND       PRES   REMARKS
WILLISTON      PTCLDY    18   9  68 S10       29.99F WCI   6
DICKINSON      CLOUDY    16  12  84 S16       29.96F WCI   1
BEACH          FOG       19  19 100 SE13      29.95F WCI   6
CROSBY         SUNNY     16   9  74 S10       29.98F WCI   4
TIOGA          PTCLDY    14  10  84 S13       29.99F
BISMARCK       SUNNY     19   9  65 SW6       30.11S WCI  11
GRAND FORKS    SUNNY     16   3  56 NW7       30.15F WCI   6
FARGO          SUNNY     18   3  52 NW7       30.16F WCI   9
BUFFALO SD     PTCLDY    19  16  88 S9        29.89F WCI   8
RAPID CITY     FOG       19  16  88 E6        29.97F VSB M1/4 WCI  11
$$

REGIONAL REPORTS...WYOMING/IDAHO/WASHINGTON
CITY           SKY/WX    TMP DP  RH WIND       PRES   REMARKS
GILLETTE       SUNNY     39  23  53 SW6       29.92S WCI  35
SHERIDAN       PTCLDY    34  21  59 CALM      29.89F
CODY           PTSUNNY   30  21  69 N3        29.92F
YELLOWSTONE LA PTSUNNY   30  16  56 VRB3      30.09F
SALMON         CLOUDY    23  19  85 CALM      30.10F
MULLAN PASS    CLOUDY    28  18  66 N/A       29.95S
SAND POINT     LGT SNOW  30  27  89 CALM      30.06F VSB 3
SPOKANE        LGT SNOW  28  25  89 SW3       30.05S VSB 1 1/4
$$

REGIONAL REPORTS...ALBERTA
CITY           SKY/WX    TMP DP  RH WIND       PRES   REMARKS
CALGARY        PTSUNNY   37  27  67 SW3       29.69F
LETHBRIDGE     PTSUNNY   43  23  45 W24       29.72F
MEDICINE HAT   PTSUNNY   23  23 100 SE3       29.76F
EDMONTON       PTSUNNY   28  21  75 S3        29.64F
WATERTON GATE  N/A       43  18  37 SW22G33    N/A
CARDSTON       N/A       45  23  42 W13G18     N/A
MILK RIVER     N/A       37  27  67 CALM       N/A
$$

REGIONAL REPORTS...SASKATCHEWAN
CITY           SKY/WX    TMP DP  RH WIND       PRES   REMARKS
SWIFT CURRENT  SUNNY     23  19  85 SW14      29.76F WCI  10
MOOSE JAW      LGT SNOW  21  18  88 S9        29.87F WCI  11
REGINA         PTSUNNY   14  10  84 S12G17    29.90F
VAL MARIE      N/A       21  19  92 S9         N/A   WCI  11
ASSINIBOIA     N/A       23  18  81 S7         N/A   WCI  15
CORONACH       N/A       18  16  92 S10        N/A   WCI   6

$$



USA.gov is the U.S. government's official web portal to all federal, state and local government web resources and services.